Find Starlink 36101

NORAD ID: 66867 Int'l Des: 2025-281 Owner: SPXS Country: US Constellation: starlink operational
LEOCIRCULAR

当前视图

正在加载3D地球...

关于 Starlink 36101

正在加载描述...

即将过境

Passes for default location (London). Set your location on the main map for personalized predictions.

高度历史

Loading altitude history...

两行轨道根数

1 66867U 25281V 26146.05618491 .00015962 00000-0 58811-3 0 9993
2 66867 42.9980 266.9008 0001513 267.5203 92.5475 15.27590604 28004
Epoch: May 26, 2026 • Age: 19 hours

当前状态

高度 486.0 km
速度 7.62 km/s
星下点 -17.24°S, 57.75°E
发射日期 Dec 2, 2025
运行时间 0.4 years
类型 internet

技术详情

分类 Payload
质量 575.00 kg
干质量 530.00 kg
总质量 575.00 kg
长度 0.30 m
直径 4.10 m
跨度 29.00 m
形状 Box + pan
制造商 SPXS
平台类型 Starlink V2MO
阶段状态 In Orbit
所有者/国家 SPXS/US

Most Searched